[[{"header":{"parameterUnit":"m.s-1","parameterCategory":1,"la1":30.2991,"la2":30.254,"lo1":-89.0895,"lo2":-89.0444,"dy":0.0017,"dx":0.0017,"nx":28,"ny":28,"refTime":"2024-03-28T03:00:00:Z","depth":0,"parameterNumber":2,"parameterNumberName":"U-component_of_WINDS"},"data":[0,0,0,0,0,0,0,0,0,0,0,0,0,0,0,0,0,0,0,0,0,0,0,0,0,0,0,0,0,0,0,0,0,0,0,0,0,0,0,0,0,0,0,0,0,0,0,0,0,0,0,0,0,0,0,0,0,0,2.4024,2.4024,0,2.404,2.404,2.404,2.3997,2.3995,2.3994,2.3993,2.4008,2.401,2.4012,0,0,0,0,0,0,0,0,0,0,0,0,0,2.3958,2.3959,2.4024,2.4024,2.4024,2.4039,2.404,2.404,2.3997,2.3995,2.3994,2.3992,2.4008,2.401,2.4012,0,0,0,0,0,0,0,0,0,0,0,0,0,2.3981,2.396,2.4024,2.4005,2.4003,2.4039,2.404,2.404,2.3997,2.3995,2.3993,2.3991,2.4007,2.401,2.4012,2.4068,0,0,2.402,2.4021,0,0,0,0,0,0,0,0,2.398,2.3984,2.4007,2.4006,2.4004,2.4014,2.4022,2.4049,2.3998,2.3999,2.3993,2.399,2.4012,2.4014,2.4021,2.4068,2.4069,2.402,2.4021,2.4022,2.4023,0,0,0,0,0,0,0,2.3978,2.3983,2.403,2.4008,2.4006,2.3996,2.3997,2.4027,2.4017,2.3999,2.3996,2.3999,2.4011,2.4019,2.4021,2.4069,2.402,2.4022,2.4024,2.4025,2.4164,2.4166,0,0,0,0,0,0,2.3979,2.3982,2.403,2.4031,2.3987,2.3998,2.4,2.4013,2.4016,2.4015,2.4,2.3996,2.4016,2.4018,2.4022,2.4087,2.4022,2.4025,2.4026,2.4161,2.4164,2.4166,0,0,0,0,0,0,2.3978,2.3984,2.4029,2.4005,2.401,2.4002,2.4017,2.4014,2.4022,2.4017,2.4015,2.401,2.4014,2.4018,2.4057,2.4087,2.4026,2.4028,2.4159,2.4162,2.4165,2.4219,0,0,0,0,0,0,2.3976,2.3984,2.4004,2.4006,2.4012,2.4064,2.4019,2.4016,2.4027,2.4022,2.4026,2.4025,2.4013,2.4053,2.4059,2.4089,2.403,2.4156,2.416,2.4164,2.4214,2.4223,2.4231,0,0,0,0,0,2.3974,2.4019,2.4006,2.4012,2.4037,2.4066,2.4069,2.4054,2.403,2.405,2.4047,2.4025,2.4083,2.4057,2.4064,2.4095,2.4154,2.4159,2.4164,2.421,2.4222,2.4231,0,0,0,0,0,0,2.402,2.4018,2.4004,2.405,2.4059,2.4058,2.4084,2.4066,2.4081,2.4076,2.4058,2.4059,2.4101,2.4102,2.4074,2.415,2.4114,2.4121,2.4147,2.4158,2.4166,2.4165,2.4032,0,0,0,0,0,2.4036,2.4059,2.4056,2.4097,2.4102,2.4093,2.4104,2.4093,2.41,2.4103,2.4103,2.4111,2.4131,2.4145,2.4163,2.4214,2.4215,2.4239,2.4248,2.4255,2.4261,2.4289,2.4299,2.4183,2.4183,2.4183,0,0,2.4068,2.407,2.4086,2.4107,2.4111,2.4136,2.4096,2.4123,2.4141,2.4107,2.4144,2.4144,2.4152,2.4197,2.4217,2.4199,2.4293,2.4261,2.4267,2.4269,2.4295,2.4306,2.4316,2.4186,2.4185,2.4185,0,0,2.414,2.4143,2.4178,2.4184,2.4193,2.4186,2.4195,2.4198,2.4196,2.4233,2.4208,2.423,2.4265,2.4272,2.428,2.4356,2.4336,2.4362,2.4407,2.4434,2.4444,2.4452,2.4479,2.4489,2.4368,2.4368,2.4368,0,2.4179,2.4214,2.4199,2.4228,2.4238,2.421,2.4245,2.4252,2.4265,2.4273,2.4253,2.4297,2.4301,2.4348,2.4366,2.4374,2.4383,2.4361,2.4444,2.4451,2.4459,2.4485,2.4495,2.4371,2.4371,2.4371,2.437,0,2.4262,2.4288,2.4315,2.433,2.4343,2.4375,2.4365,2.438,2.4368,2.4364,2.4402,2.4405,2.4424,2.4434,2.4422,2.448,2.4469,2.4447,2.4411,2.4473,2.4497,2.4507,2.4376,2.4375,2.4374,2.4373,0,0,2.4362,2.4368,2.4379,2.4385,2.4393,2.4412,2.4444,2.4462,2.4476,2.4487,2.4513,2.4544,2.4524,2.4534,2.4522,2.4546,2.4607,2.4521,2.4521,2.4537,2.4671,2.4688,2.47,2.4594,2.4596,2.4597,2.4671,0,2.4433,2.4486,2.4474,2.4527,2.4551,2.4525,2.4552,2.456,2.4558,2.4577,2.4574,2.4597,2.4568,2.4574,2.4597,2.4595,2.4634,2.4589,2.4618,2.4619,2.4617,2.4712,2.4729,2.4798,2.468,2.4682,2.4683,0,2.4521,2.4536,2.4592,2.4597,2.4606,2.4631,2.4648,2.4667,2.4676,2.4673,2.4684,2.4668,2.47,2.4664,2.4708,2.4678,2.4689,2.469,2.4693,2.4694,2.4655,2.4716,2.482,2.483,2.4697,2.4696,2.4695,0,2.4589,2.4623,2.4661,2.4667,2.4674,2.4692,2.4695,2.4702,2.4715,2.473,2.4737,2.4756,2.4766,2.4781,2.4771,2.4745,2.4816,2.4779,2.4814,2.4815,2.483,2.4829,2.4936,2.4838,2.4838,2.4837,2.4837,0,2.4668,2.4704,2.4691,2.4714,2.4753,2.4739,2.4778,2.4779,2.4785,2.4809,2.4787,2.481,2.4795,2.4817,2.4809,2.4847,2.4851,2.485,2.4847,2.4851,2.4851,2.4858,2.4853,2.484,2.484,2.4839,2.4839,0,2.475,2.4743,2.4782,2.4786,2.4787,2.4816,2.4819,2.4841,2.4837,2.4867,2.4873,2.4868,2.4892,2.4884,2.4909,2.4904,2.4952,2.4944,2.4949,2.4947,2.4982,2.4979,2.5098,2.5113,2.5005,2.5006,2.5007,0,2.4801,2.4827,2.4834,2.4848,2.4853,2.4876,2.4889,2.4877,2.4891,2.4904,2.4924,2.4947,2.4964,2.5004,2.5002,2.5022,2.5014,2.5054,2.5017,2.502,2.5014,2.5013,2.5016,2.5061,2.5063,2.5064,2.5064,0,2.4892,2.4888,2.4907,2.4926,2.4942,2.4956,2.4968,2.4981,2.4969,2.4986,2.5011,2.5024,2.5051,2.5074,2.5092,2.5096,2.5079,2.5076,2.5086,2.509,2.5092,2.5091,2.497,2.5073,2.5073,2.5072,2.5071,2.5071,2.496,2.4982,2.4991,2.5013,2.5021,2.5033,2.5054,2.5054,2.5074,2.5095,2.5087,2.5116,2.5125,2.5147,2.5154,2.5177,2.5161,2.5174,2.5177,2.5181,2.5185,2.5089,2.518,2.518,2.5179,2.5179,2.5179,0,2.505,2.5054,2.5075,2.5093,2.5111,2.5094,2.5107,2.5123,2.5148,2.5159,2.5176,2.5205,2.5228,2.5228,2.5249,2.5267,2.526,2.5273,2.5271,2.5273,2.5198,2.5188,2.5279,2.5279,2.5279,2.5279,2.5279,2.5279,2.5099,2.5137,2.5134,2.5175,2.518,2.5207,2.5216,2.5228,2.5236,2.5269,2.5288,2.5288,2.5295,2.5316,2.5336,2.5336,2.5345,2.5361,2.5358,2.5288,2.5278,2.5268,2.5259,2.5363,2.5363,2.5431,2.5431,2.5432]},{"header":{"parameterUnit":"m.s-1","parameterCategory":1,"la1":30.2991,"la2":30.254,"lo1":-89.0895,"lo2":-89.0444,"dy":0.0017,"dx":0.0017,"nx":28,"ny":28,"refTime":"2024-03-28T03:00:00:Z","depth":0,"parameterNumber":3,"parameterNumberName":"V-component_of_WINDS"},"data":[0,0,0,0,0,0,0,0,0,0,0,0,0,0,0,0,0,0,0,0,0,0,0,0,0,0,0,0,0,0,0,0,0,0,0,0,0,0,0,0,0,0,0,0,0,0,0,0,0,0,0,0,0,0,0,0,0,0,-5.9507,-5.9509,0,-5.9691,-5.9693,-5.9695,-5.9651,-5.9647,-5.9644,-5.964,-5.9826,-5.9834,-5.9842,0,0,0,0,0,0,0,0,0,0,0,0,0,-5.9115,-5.9122,-5.9506,-5.9509,-5.9511,-5.969,-5.9693,-5.9695,-5.9651,-5.9647,-5.9643,-5.9639,-5.9823,-5.9833,-5.9843,0,0,0,0,0,0,0,0,0,0,0,0,0,-5.929,-5.9124,-5.9506,-5.9511,-5.9513,-5.969,-5.9693,-5.9696,-5.9652,-5.9647,-5.9642,-5.9637,-5.982,-5.9832,-5.9844,-6.0027,0,0,-5.9882,-5.9887,0,0,0,0,0,0,0,0,-5.928,-5.9305,-5.9508,-5.9511,-5.9514,-5.9642,-5.9623,-5.9807,-5.9654,-5.9599,-5.964,-5.9634,-5.9769,-5.9785,-5.9831,-6.0035,-6.0043,-5.9883,-5.9891,-5.9896,-5.9899,0,0,0,0,0,0,0,-5.9268,-5.9297,-5.9579,-5.9511,-5.9514,-5.9503,-5.9522,-5.9657,-5.9712,-5.9604,-5.9601,-5.9624,-5.9769,-5.9819,-5.9835,-6.0046,-5.9883,-5.9894,-5.9901,-5.9906,-6.041,-6.0416,0,0,0,0,0,0,-5.9254,-5.9287,-5.9573,-5.9585,-5.9382,-5.9514,-5.9536,-5.9606,-5.971,-5.9721,-5.9628,-5.9621,-5.9801,-5.9821,-5.9842,-6.0063,-5.9896,-5.9907,-5.9914,-6.0404,-6.0411,-6.0418,0,0,0,0,0,0,-5.9246,-5.928,-5.9566,-5.9435,-5.9471,-5.9527,-5.9607,-5.9613,-5.9663,-5.9728,-5.9737,-5.9669,-5.9798,-5.9824,-5.9982,-6.0069,-5.9913,-5.9924,-6.0397,-6.0406,-6.0415,-6.0508,0,0,0,0,0,0,-5.9235,-5.9277,-5.9348,-5.9437,-5.9478,-5.9704,-5.9612,-5.962,-5.9685,-5.9677,-5.977,-5.978,-5.9795,-5.9963,-5.9994,-6.0083,-5.9934,-6.039,-6.0401,-6.0412,-6.0497,-6.0519,-6.0537,0,0,0,0,0,-5.9221,-5.9366,-5.9352,-5.9386,-5.9567,-5.9709,-5.9732,-5.9748,-5.9692,-5.9763,-5.9805,-5.9777,-6.0054,-5.998,-6.0014,-6.0108,-6.0384,-6.0398,-6.0411,-6.0488,-6.0514,-6.0537,0,0,0,0,0,0,-5.9284,-5.9377,-5.9363,-5.9541,-5.9618,-5.9701,-5.9792,-5.9776,-5.9869,-5.9858,-5.9873,-5.9894,-6.0055,-6.0097,-6.0012,-6.0291,-6.0211,-6.0232,-6.0258,-6.0283,-6.0303,-6.029,-5.9944,0,0,0,0,0,-5.9319,-5.9427,-5.9502,-5.9652,-5.9692,-5.9735,-5.9797,-5.9803,-5.9883,-5.9915,-5.9968,-6.0046,-6.015,-6.0219,-6.0319,-6.0502,-6.0522,-6.0584,-6.0604,-6.062,-6.0638,-6.074,-6.0768,-6.0462,-6.0462,-6.0462,0,0,-5.9392,-5.9456,-5.9523,-5.9667,-5.9727,-5.9838,-5.9763,-5.9883,-5.9966,-5.9932,-6.0085,-6.0127,-6.0214,-6.0386,-6.0464,-6.0426,-6.0727,-6.0637,-6.065,-6.0659,-6.0756,-6.0785,-6.0811,-6.0471,-6.047,-6.0468,0,0,-5.9582,-5.9641,-5.9773,-5.9835,-5.9927,-5.9956,-5.9987,-6.0074,-6.0101,-6.0255,-6.0232,-6.033,-6.051,-6.0573,-6.0629,-6.0844,-6.0822,-6.0876,-6.0981,-6.108,-6.1104,-6.1125,-6.1203,-6.1231,-6.0893,-6.0894,-6.0894,0,-5.9661,-5.9828,-5.9843,-5.9967,-6.003,-6.0006,-6.014,-6.0199,-6.0319,-6.0363,-6.0319,-6.0545,-6.0602,-6.0789,-6.0841,-6.0887,-6.0924,-6.0866,-6.1099,-6.1121,-6.1141,-6.1215,-6.1245,-6.09,-6.0899,-6.0898,-6.0898,0,-5.9921,-6.0038,-6.0133,-6.0251,-6.0325,-6.0453,-6.0487,-6.056,-6.056,-6.0592,-6.0749,-6.0817,-6.093,-6.0975,-6.0974,-6.1162,-6.1136,-6.1095,-6.1015,-6.1176,-6.1246,-6.1275,-6.0908,-6.0906,-6.0904,-6.0903,0,0,-6.0157,-6.0282,-6.0317,-6.037,-6.047,-6.056,-6.0687,-6.0799,-6.0863,-6.0946,-6.1053,-6.1206,-6.1169,-6.1233,-6.1239,-6.1326,-6.1493,-6.1275,-6.1277,-6.1314,-6.1705,-6.1736,-6.1768,-6.1478,-6.1484,-6.1488,-6.1698,0,-6.0357,-6.0581,-6.0599,-6.0801,-6.0909,-6.0888,-6.0998,-6.1071,-6.1105,-6.1201,-6.1238,-6.1347,-6.129,-6.1328,-6.1413,-6.1455,-6.1572,-6.144,-6.1578,-6.1583,-6.1558,-6.1805,-6.1838,-6.2032,-6.1725,-6.173,-6.1733,0,-6.062,-6.0713,-6.0927,-6.1013,-6.1059,-6.1158,-6.1263,-6.1355,-6.1437,-6.1455,-6.1527,-6.1522,-6.1652,-6.1567,-6.1746,-6.1655,-6.1713,-6.1742,-6.175,-6.1764,-6.1669,-6.1827,-6.2095,-6.2125,-6.1776,-6.1773,-6.177,0,-6.0772,-6.095,-6.1102,-6.1148,-6.1251,-6.1322,-6.1368,-6.1445,-6.1512,-6.1603,-6.1647,-6.1751,-6.1809,-6.1889,-6.1913,-6.1848,-6.2092,-6.2008,-6.2111,-6.211,-6.2164,-6.216,-6.2446,-6.2199,-6.2198,-6.2198,-6.2197,0,-6.0995,-6.1126,-6.1172,-6.1265,-6.1412,-6.143,-6.1574,-6.1616,-6.1685,-6.1786,-6.1773,-6.1867,-6.1892,-6.1991,-6.2009,-6.2155,-6.2181,-6.2199,-6.2203,-6.2202,-6.22,-6.224,-6.2228,-6.2206,-6.2204,-6.2202,-6.2201,0,-6.119,-6.1225,-6.1389,-6.1474,-6.1498,-6.1603,-6.1676,-6.1765,-6.1797,-6.1925,-6.1955,-6.2005,-6.2121,-6.2152,-6.229,-6.2303,-6.2475,-6.2465,-6.2448,-6.2449,-6.255,-6.2541,-6.2873,-6.2918,-6.264,-6.2642,-6.2645,0,-6.133,-6.1431,-6.1528,-6.1595,-6.1645,-6.1752,-6.1821,-6.1842,-6.1914,-6.2016,-6.2093,-6.2207,-6.23,-6.2486,-6.2534,-6.264,-6.2633,-6.2743,-6.2649,-6.2645,-6.2637,-6.2631,-6.2642,-6.2761,-6.2764,-6.2766,-6.2768,0,-6.1576,-6.1589,-6.1688,-6.1795,-6.1878,-6.1962,-6.2043,-6.2098,-6.2131,-6.2212,-6.2331,-6.2403,-6.2545,-6.2659,-6.2766,-6.2812,-6.2797,-6.2797,-6.2826,-6.2827,-6.2813,-6.2823,-6.2498,-6.2789,-6.2787,-6.2786,-6.2784,-6.2784,-6.1749,-6.1838,-6.1921,-6.2032,-6.2096,-6.2172,-6.2261,-6.2304,-6.2404,-6.2523,-6.2528,-6.2658,-6.2738,-6.288,-6.2933,-6.3034,-6.3001,-6.3044,-6.3055,-6.3065,-6.3075,-6.2796,-6.3053,-6.3052,-6.3052,-6.3051,-6.3051,0,-6.1995,-6.2047,-6.215,-6.2264,-6.2353,-6.233,-6.2419,-6.2494,-6.2608,-6.2685,-6.2777,-6.2914,-6.3024,-6.3082,-6.3191,-6.3261,-6.3257,-6.329,-6.3285,-6.3297,-6.3097,-6.3061,-6.3292,-6.3292,-6.3292,-6.3291,-6.3291,-6.3291,-6.2134,-6.2284,-6.2307,-6.2489,-6.2539,-6.2668,-6.272,-6.2791,-6.2852,-6.3006,-6.3098,-6.3135,-6.3204,-6.3319,-6.3419,-6.3433,-6.3475,-6.3512,-6.3522,-6.3335,-6.331,-6.3287,-6.3253,-6.352,-6.3521,-6.3713,-6.3715,-6.3716]}]]